Regional Weather Roundup
Issued by NWS

Home | Current Version | Previous Version | Text Only | Print | Product List | Glossary On
Versions: 1 2 3 4 5 6 7 8 9 10 11 12 13 14 15 16 17 18 19 20 21 22 23 24 25 26 27 28 29 30 31 32 33 34 35 36 37 38 39 40 41 42 43 44 45 46 47 48
000
ASUS46 KPQR 301110
RWROR

OREGON REGIONAL WEATHER ROUNDUP
NATIONAL WEATHER SERVICE PORTLAND OR
300 AM PST FRI JAN 30 2015

NOTE: "FAIR" INDICATES FEW OR NO CLOUDS BELOW 12,000 FEET WITH
NO SIGNIFICANT WEATHER AND/OR OBSTRUCTIONS TO VISIBILITY.

ORZ001>013-301200-
NORTHWEST OREGON


CITY           SKY/WX    TMP DP  RH WIND       PRES   REMARKS
ASTORIA        CLEAR     38  36  92 E3        30.28R
NEWPORT        CLEAR     39  37  93 E5        30.29S
PORTLAND       CLEAR     37  37 100 CALM      30.31R
VANCOUVER WA   CLEAR     34  31  88 CALM      30.31R
SCAPPOOSE      FOG       33  32  96 CALM      30.30R VSB 1/2
HILLSBORO      FOG       33  32  96 CALM      30.29S VSB 1/2
AURORA         CLEAR     38  33  82 NE3       30.29R
MCMINNVILLE    CLEAR     38  35  89 N3        30.29R
SALEM          CLEAR     35  33  92 CALM      30.27S
CORVALLIS      CLEAR     37  34  87 CALM      30.28S
EUGENE         MOCLDY    35  33  92 NW3       30.28R FOG
$$

ORZ021-028-301200-
SOUTHWEST OREGON


CITY           SKY/WX    TMP DP  RH WIND       PRES   REMARKS
NORTH BEND     CLEAR     43  43 100 NE6       30.25S
BROOKINGS      PTCLDY    45  45 100 CALM      30.17S FOG
ROSEBURG       CLOUDY    47  43  86 E3        30.25S
SEXTON SUMMIT  CLEAR     47  33  58 N5        30.19S
MEDFORD        CLEAR     36  32  85 CALM      30.22S
$$

ORZ014>016-041-301200-
COLUMBIA GORGE


CITY           SKY/WX    TMP DP  RH WIND       PRES   REMARKS
TROUTDALE      CLEAR     43  33  68 E21G26    30.29R
THE DALLES     CLOUDY    40  35  83 E3        30.45S
$$

ORZ029>031-041-044-049-050-061>064-502-503-505>511-301200-
EASTERN OREGON


CITY           SKY/WX    TMP DP  RH WIND       PRES   REMARKS
REDMOND        CLOUDY    34  33  96 S3        30.31S
BEND           CLOUDY    32  32 100 CALM      30.31F FOG
PRINEVILLE     CLOUDY    36  36 100 CALM      30.31F
KLAMATH FALLS  CLEAR     35  31  85 NW6       30.21S WCI  30
LAKEVIEW       CLEAR     34  27  75 N13       30.22S WCI  25
HERMISTON      CLOUDY    37  35  92 NW5       30.43S FOG     WCI  33
PENDLETON      CLOUDY    34  33  96 CALM      30.39S FOG
JOHN DAY       CLEAR     32  29  86 SE8       30.29S WCI  25
MEACHAM        PTCLDY    24  21  88 CALM      30.28F
LA GRANDE      CLEAR     25  18  74 SW3       30.31F
BAKER CITY     FOG       24  23  96 CALM      30.31F VSB 3/4
BURNS          PTCLDY    26  23  88 N7        30.29F WCI  18
ROME             N/A     34  30  85 N5        30.26S WCI  30
ONTARIO        CLOUDY    31  28  89 NW3       30.34F
$$



USA.gov is the U.S. government's official web portal to all federal, state and local government web resources and services.